Home   Weather   Samara   Past weeks

Flag for Russia Past Weather in Samara, Russia — Yesterday and Last 2 Weeks

32 °F


Feels Like: 26 °F
Forecast: 28 / 37 °F
Wind: 6 mph from Northwest

Location: Samara

Current Time: Oct 25, 2016 at 1:51:45 AM

Latest Report: Oct 25, 2016 at 1:00 AM

Visibility: 10 mi

Pressure: 30.92 "Hg

Humidity: 80%

Dew Point: 27 °F

Location of SamaraLocation

Past Weather in Samara — Graph


Samara Temperature Yesterday

Maximum temperature yesterday: 36 °F (at 11:30 AM)
Minimum temperature yesterday: 25 °F (at 7:00 AM)
Average temperature yesterday: 32 °F

High & Low Weather Summary for the Past Weeks

High46 °F (Oct 10, 1:00 PM)100% (Oct 16, 2:00 PM)31.04 "Hg (Oct 16, 2:00 PM)
Low25 °F (Oct 22, 4:00 AM)39% (Oct 12, 4:30 PM)30.12 "Hg (Oct 14, 2:30 AM)
Average36 °F76%30.42 "Hg
* Reported Oct 10 12:00 AM — Oct 25 12:30 AM, Samara, Weather by CustomWeather, © 2016

Note: Actual official high and low records may vary slightly from our data, if they occured in-between our weather recording intervals... More about our weather records


Samara Weather History for the Previous 24 Hours

Scroll right to see more
Time TempWeatherWind HumidityBarometerVisibility
12:30 AM
Tue, Oct 25
32 °FClear.3 mph80%30.92 "Hg10 mi
12:00 AM32 °FClear.3 mph80%30.92 "Hg10 mi
11:30 PM
Mon, Oct 24
32 °FPassing clouds.8 mph75%30.92 "HgN/A
11:00 PM32 °FPassing clouds.8 mph75%30.92 "HgN/A
10:30 PM32 °FPassing clouds.8 mph75%30.92 "HgN/A
10:00 PM34 °FPassing clouds.8 mph70%30.92 "HgN/A
9:30 PM34 °FPassing clouds.8 mph65%30.92 "HgN/A
9:00 PM34 °FPassing clouds.8 mph65%30.95 "HgN/A
8:30 PM34 °FClear.8 mph60%30.95 "Hg10 mi
8:00 PM34 °FClear.8 mph60%30.95 "Hg10 mi
7:30 PM34 °FClear.8 mph60%30.95 "Hg10 mi
7:00 PM34 °FPassing clouds.8 mph60%30.95 "HgN/A
6:30 PM34 °FPassing clouds.6 mph60%30.95 "HgN/A
6:00 PM34 °FScattered clouds.6 mph60%30.95 "HgN/A
5:30 PM34 °FScattered clouds.6 mph56%30.98 "HgN/A
5:00 PM36 °FSunny.6 mph52%30.98 "Hg10 mi
4:30 PM36 °FScattered clouds.6 mph48%30.98 "HgN/A
4:00 PM36 °FScattered clouds.8 mph48%30.98 "HgN/A
3:30 PM36 °FScattered clouds.8 mph48%30.98 "HgN/A
3:00 PM36 °FSunny.8 mph48%31.01 "Hg10 mi
2:30 PM36 °FSunny.6 mph52%31.01 "Hg10 mi
2:00 PM36 °FPassing clouds.8 mph52%31.01 "HgN/A
1:30 PM36 °FPassing clouds.6 mph52%31.01 "HgN/A
1:00 PM36 °FPassing clouds.3 mph52%31.01 "HgN/A
12:30 PM36 °FPassing clouds.6 mph52%31.01 "HgN/A
12:00 PM36 °FPassing clouds.3 mph56%31.01 "HgN/A
11:30 AM36 °FPassing clouds.6 mph52%31.04 "HgN/A
11:00 AM34 °FPassing clouds.6 mph56%31.04 "HgN/A
10:30 AM34 °FPassing clouds.6 mph60%31.04 "HgN/A
10:00 AM32 °FSunny.3 mph69%31.04 "Hg10 mi
9:30 AM30 °FSunny.1 mph75%31.04 "Hg10 mi
9:00 AM27 °FSunny.3 mph80%31.04 "Hg10 mi
8:30 AM27 °FSunny.1 mph80%31.04 "Hg10 mi
8:00 AM25 °FClear.3 mph86%31.01 "Hg10 mi
7:30 AM25 °FClear.3 mph86%31.01 "Hg10 mi
7:00 AM25 °FClear.3 mph86%31.01 "Hg10 mi
6:30 AM27 °FPassing clouds.3 mph80%31.01 "HgN/A
6:00 AM27 °FPassing clouds.3 mph80%31.01 "HgN/A
5:30 AM28 °FPassing clouds.3 mph80%31.01 "HgN/A
5:00 AM28 °FPassing clouds.3 mph86%31.01 "HgN/A
4:30 AM28 °FPassing clouds.3 mph86%31.01 "HgN/A
4:00 AM30 °FPassing clouds.6 mph80%31.01 "HgN/A
3:30 AM30 °FPassing clouds.3 mph80%31.01 "HgN/A
3:00 AM30 °FPassing clouds.6 mph80%30.98 "HgN/A
2:30 AM30 °FPassing clouds.6 mph80%31.01 "HgN/A
2:00 AM30 °FPassing clouds.6 mph80%30.98 "HgN/A
1:30 AM30 °FPassing clouds.6 mph86%30.98 "HgN/A
1:00 AM30 °FPassing clouds.6 mph86%30.98 "HgN/A
Weather by CustomWeather, © 2016

See weather overviewHow to use our weather pages